DateTimeUTC,F1_A11,F1_S11,BsB_S11,BsG_S11,BsR_S11,BbsB_S11,BbsG_S11,BbsR_S11,BaB_A11,BaG_A11,BaR_A11,Tu_S11,T_S11,Uu_S11,U_S11,P_S11,T1_A11
2021-08-11T15:00:00Z,00040200,20000000,,,,,,,-000.01,-000.13,-000.13,19.9,26.4,12.0,08.1,0676.2,31.1
2021-08-11T15:01:00Z,00040200,20000000,,,,,,,0000.01,0000.25,0000.33,19.9,26.4,12.0,08.1,0676.2,31.1
2021-08-11T15:02:00Z,00040200,20000000,,,,,,,-000.07,-000.21,-000.07,19.9,26.4,12.0,08.1,0676.1,31.1
2021-08-11T15:03:00Z,00040200,60000000,,,,,,,-000.18,0000.04,-000.02,19.9,26.4,12.0,08.1,0676.1,31.1
2021-08-11T15:04:00Z,00040200,40000000,0000.27,0000.27,0000.16,-000.72,0000.13,0000.28,0000.38,-000.05,-000.22,20.0,26.2,11.9,08.2,0677.1,31.1
2021-08-11T15:05:00Z,00040200,00000000,-000.53,0000.20,0000.37,0000.06,0000.03,0000.10,0000.17,0000.24,0000.22,20.1,26.2,12.0,08.3,0677.1,31.1
2021-08-11T15:06:00Z,00040200,00000000,-000.23,0000.05,-000.30,0000.17,0000.15,-000.27,-000.16,-000.31,-000.06,20.1,26.2,12.0,08.3,0677.1,31.1
2021-08-11T15:07:00Z,00040200,00000000,-000.24,0000.07,-000.30,-000.36,0000.17,-000.20,0000.23,0000.50,0000.25,20.1,26.2,12.1,08.3,0677.1,31.1
2021-08-11T15:08:00Z,00040200,00000000,0000.37,0000.23,-000.13,-000.32,0000.21,0000.31,0000.28,0000.18,0000.23,20.1,26.2,12.3,08.5,0677.1,31.1
2021-08-11T15:09:00Z,00040200,00000000,-000.18,0000.10,0000.05,-000.29,0000.06,0000.01,-000.81,-000.26,-000.22,20.1,26.2,12.1,08.4,0677.1,31.1
2021-08-11T15:10:00Z,00040200,00000000,0000.55,0000.44,0000.28,0000.02,0000.61,0000.06,0000.06,-000.15,-000.25,20.1,26.1,12.2,08.4,0677.1,31.2
2021-08-11T15:11:00Z,00040200,00000000,-000.19,0000.46,-000.12,-000.21,0000.38,-000.01,-000.01,-000.48,-000.09,20.1,26.1,12.0,08.3,0677.1,31.1
2021-08-11T15:12:00Z,00040200,00000000,-000.17,0000.18,-000.09,0000.18,0000.04,0000.01,-000.16,-000.32,-000.19,20.1,26.1,11.8,08.2,0677.1,31.1
2021-08-11T15:13:00Z,00040200,00000000,0000.94,0000.28,0000.17,-000.29,0000.32,-000.12,0000.03,0000.53,0000.51,20.1,26.1,11.8,08.1,0677.1,31.1
2021-08-11T15:14:00Z,00040200,00000000,0000.81,0000.21,0000.03,0000.03,0000.21,0000.45,0000.08,0000.11,-000.10,20.1,26.2,12.0,08.3,0677.0,31.1
2021-08-11T15:15:00Z,00040200,00000000,0000.15,0000.30,0000.02,0000.04,0000.17,0000.17,0000.13,0000.32,0000.19,20.1,26.1,12.1,08.4,0677.0,31.1
2021-08-11T15:16:00Z,00040200,00000000,0000.38,0000.11,-000.00,-000.20,0000.14,-000.11,0000.56,-000.08,0000.25,20.1,26.1,12.2,08.4,0677.0,31.1
2021-08-11T15:17:00Z,00040200,00000000,0000.36,0000.19,-000.04,-000.19,0000.29,-000.17,-000.73,0000.09,-000.14,20.1,26.1,12.0,08.3,0677.0,31.1
2021-08-11T15:18:00Z,00040200,00000000,-000.25,-000.12,0000.20,0000.46,0000.31,0000.21,0000.65,0000.00,0000.11,20.1,26.1,12.0,08.3,0677.0,31.1
2021-08-11T15:19:00Z,00040200,00000000,-000.28,0000.17,0000.07,0000.48,0000.51,-000.01,-000.48,-000.32,-000.34,20.1,26.1,12.0,08.3,0677.0,31.1
2021-08-11T15:20:00Z,00040200,00000000,0000.12,0000.35,0000.37,-000.41,-000.01,0000.13,-000.68,-000.58,-000.76,20.1,26.1,11.6,08.0,0676.9,31.1
2021-08-11T15:21:00Z,00040200,00000000,0001.06,0000.36,0000.26,-000.29,0000.48,0000.01,0000.59,0000.34,0000.68,20.1,26.1,11.9,08.2,0677.0,31.1
2021-08-11T15:22:00Z,00040200,00000000,0000.55,0000.31,0000.19,0000.05,0000.45,0000.37,0000.18,0000.44,0000.30,20.1,26.1,12.1,08.4,0677.0,31.1
2021-08-11T15:23:00Z,00040200,00000000,0000.34,0000.32,-000.02,0000.27,0000.32,0000.06,-000.94,-000.69,-000.86,20.1,26.1,12.0,08.4,0677.0,31.1
2021-08-11T15:24:00Z,00040200,00000000,0000.18,0000.13,-000.07,-000.41,0000.26,-000.10,0000.23,-000.06,0000.45,20.1,26.1,11.8,08.2,0676.9,31.1
2021-08-11T15:25:00Z,00040200,00000000,0000.55,0000.20,0000.14,-000.32,-000.05,0000.36,0000.44,0000.01,0000.27,20.1,26.1,11.7,08.1,0676.9,31.1
2021-08-11T15:26:00Z,00040200,00000000,0000.34,0000.21,0000.09,-000.07,0000.20,-000.09,-000.56,-000.02,-000.44,20.1,26.1,11.7,08.1,0676.9,31.1
2021-08-11T15:27:00Z,00040200,00000000,0000.47,0000.16,0000.27,-000.29,0000.23,-000.02,0000.51,0000.63,0000.16,20.1,26.1,11.8,08.2,0676.9,31.1
2021-08-11T15:28:00Z,00040200,00000000,0000.36,0000.25,0000.29,-000.35,-000.04,-000.15,0000.48,0000.07,0000.78,20.1,26.1,12.0,08.3,0676.9,31.1
2021-08-11T15:29:00Z,00040200,00000000,-000.14,0000.06,0000.06,-000.59,0000.07,0000.43,-000.79,-000.27,-000.81,20.1,26.1,11.9,08.2,0676.9,31.1
2021-08-11T15:30:00Z,00040200,00000000,0000.07,0000.28,0000.20,0000.22,0000.13,-000.10,0000.18,0000.21,0000.21,20.1,26.1,11.9,08.3,0676.9,31.2
2021-08-11T15:31:00Z,00040200,00000000,-000.34,0000.31,-000.00,-000.23,0000.47,0000.08,-000.08,-000.21,-000.12,20.1,26.1,11.7,08.1,0676.9,31.2
2021-08-11T15:32:00Z,00040200,00000000,0000.55,0000.31,0000.12,-000.50,-000.12,0000.04,-000.21,-000.56,-000.52,20.1,26.1,11.5,08.0,0677.0,31.1
2021-08-11T15:33:00Z,00040200,00000000,0000.02,0000.28,-000.33,-000.66,0000.14,-000.06,0000.29,0000.11,0000.57,20.1,26.1,11.6,08.1,0677.0,31.1
2021-08-11T15:34:00Z,00040200,00000000,0000.49,-000.14,0000.01,-000.82,0000.02,0000.19,-000.52,-000.06,-000.88,20.1,26.1,11.7,08.1,0677.0,31.1
2021-08-11T15:35:00Z,00040200,00000000,0000.05,0000.19,0000.13,0000.15,-000.05,-000.01,0000.39,0000.11,0000.95,20.1,26.1,11.6,08.0,0677.0,31.1
2021-08-11T15:36:00Z,00040200,00000000,0000.53,0000.35,0000.29,0000.03,0000.33,0000.16,-000.44,-000.39,-000.69,20.1,26.1,11.6,08.1,0677.0,31.1
2021-08-11T15:37:00Z,00040200,00000000,0000.51,-000.11,0000.08,-000.08,0000.09,0000.10,0000.08,-000.01,-000.22,20.1,26.1,11.7,08.1,0677.0,31.1
2021-08-11T15:38:00Z,00040200,00000000,0000.56,0000.60,0000.10,-000.07,-000.09,0000.22,0000.08,-000.20,0000.32,20.1,26.1,11.5,08.0,0677.0,31.1
2021-08-11T15:39:00Z,00040200,00000000,0000.84,-000.12,-000.25,0000.46,0000.08,-000.08,0000.28,0000.47,0000.42,20.1,26.1,11.5,08.0,0677.0,31.1
2021-08-11T15:40:00Z,00040200,00000000,0000.36,0000.01,0000.47,-000.22,0000.07,0000.30,-000.16,-000.24,-000.01,20.1,26.1,11.6,08.1,0677.0,31.1
2021-08-11T15:41:00Z,00040200,00000000,0000.73,0000.12,0000.21,-000.27,0000.28,0000.11,0000.48,0000.66,0000.39,20.1,26.1,11.7,08.2,0677.0,31.1
2021-08-11T15:42:00Z,00040200,00000000,0000.06,-000.04,-000.18,-000.44,0000.33,-000.14,-000.70,-000.62,-000.45,20.1,26.1,11.7,08.1,0677.0,31.1
2021-08-11T15:43:00Z,00040200,00000000,0000.19,0000.31,0000.20,0000.50,0000.19,0000.17,0000.60,0000.71,-000.09,20.1,26.1,11.6,08.0,0677.0,31.1
2021-08-11T15:44:00Z,00040200,00000000,-000.07,0000.21,0000.19,-000.14,-000.25,0000.26,-000.52,-000.45,-000.16,20.1,26.1,11.6,08.1,0677.0,31.1
2021-08-11T15:45:00Z,00040200,00000000,0000.04,0000.39,0000.39,0000.23,0000.06,0000.10,0000.37,0000.04,0000.47,20.1,26.1,11.6,08.0,0677.0,31.1
2021-08-11T15:46:00Z,00040200,00000000,0000.28,0000.32,0000.11,0000.02,0000.20,0000.08,0000.25,-000.10,-000.01,20.1,26.1,11.6,08.0,0677.0,31.1
2021-08-11T15:47:00Z,00040200,00000000,0001.22,0000.25,0000.30,-000.03,0000.33,0000.17,-000.15,0000.34,0000.15,20.1,26.1,11.6,08.1,0677.0,31.1
2021-08-11T15:48:00Z,00040200,00000000,0000.28,0000.20,0000.44,-000.37,0000.19,0000.22,-000.32,-000.16,-000.52,20.1,26.1,11.8,08.2,0677.0,31.1
2021-08-11T15:49:00Z,00040200,00000000,0000.39,-000.19,0000.15,-000.81,0000.13,0000.05,0000.07,0000.27,0000.32,20.1,26.1,11.6,08.1,0677.0,31.1
2021-08-11T15:50:00Z,00040200,00000000,0000.95,0000.34,-000.08,0000.21,0000.32,0000.24,0000.49,-000.33,0000.00,20.1,26.1,11.7,08.1,0677.0,31.1
2021-08-11T15:51:00Z,00040200,00000000,0000.54,0000.60,0000.08,-000.05,0000.14,0000.05,0000.00,0000.76,0000.59,20.1,26.1,11.8,08.2,0677.0,31.1
2021-08-11T15:52:00Z,00040200,00000000,-000.21,0000.44,-000.01,0000.17,0000.09,0000.08,0000.23,0000.08,0000.25,20.1,26.1,11.8,08.2,0677.0,31.1
2021-08-11T15:53:00Z,00040200,00000000,-000.24,0000.56,0000.30,-000.12,0000.08,-000.12,0000.11,0000.16,-000.02,20.1,26.1,11.9,08.3,0677.0,31.1
2021-08-11T15:54:00Z,00040200,00000000,0000.32,0000.11,0000.03,0000.32,0000.10,0000.16,-000.47,-000.68,-000.46,20.1,26.1,11.9,08.3,0677.0,31.1
2021-08-11T15:55:00Z,00040200,00000000,0000.26,0000.52,0000.39,-000.16,0000.14,-000.05,0000.08,-000.08,0000.04,20.1,26.1,11.8,08.2,0677.0,31.1
2021-08-11T15:56:00Z,00040200,00000000,0001.11,0000.37,0000.11,-000.32,-000.00,-000.06,-000.06,0000.38,0000.07,20.1,26.1,11.7,08.1,0677.0,31.1
2021-08-11T15:57:00Z,00040200,40000000,,,,,,,0000.08,-000.16,0000.38,20.1,26.1,11.6,08.1,0677.0,31.1
2021-08-11T15:58:00Z,00040200,60000000,,,,,,,-000.05,-000.28,-000.33,19.8,26.2,11.7,07.9,0676.1,31.1
2021-08-11T15:59:00Z,00040200,20000000,,,,,,,-000.31,0000.02,-000.13,19.8,26.3,11.7,07.9,0676.0,31.1
